STARLINK-1413, 45689

Orbit data source: Space-Track

STARLINK-1413, 45689 is a payload satellite owned by SpaceX/Seattle (US) in LEO that was launched on Thu, 04 Jun 2020 UTC via an FALCON 9 launch vehicle from the Air Force Eastern Test Range (AFETR). Payload-class satellites include a variety of spacecraft equipped with specific instruments for various scientific and technological missions. These include communications satellites like Starlink; space stations such as the ISS; scientific satellites like the Hubble; Earth observation satellites from companies like Planet Labs, Umbra, and HawkEye 360; GPS; miniature CubeSats for education and research; and military/defense satellites.

Loading next visibility...
Identifier
45689, 2020-035AJ
Orbit
LEO
Last TLE update
1 day ago
Origin
Manufacturer
SpaceX/Seattle
Mission
Operational Commercial Communications
Bus & Motor
STARLINK, Unknown motor
Mass
260 kg wet, ~248 kg dry
Launch date (UTC)
2020-06-04 (5 years ago)
Launch vehicle
FALCON 9
Launch site
Air Force Eastern Test Range (AFETR)
Object type
Payload
Rocket body
Debris
Shape & HBR
Box + 1 Pan, 8.86 m
Radar Cross Section
13.562 m², Large (>1 m²)

Expand to show TLE details & history

TLE from 1 day ago
0 STARLINK-1413
1 45689U 20035AJ  25128.02724475 -.00001380  00000-0 -73778-4 0  9991
2 45689  53.0566 348.7883 0001593 101.8017 258.3151 15.06403579272710
Epoch: 2025-05-08T00:39Z
Definitive object data (Epoch: 2025-05-08T00:39:13.946Z)
Latitude
Longitude
112.87656°
Altitude
548.304 km
Speed
7.589 km/s
True Right ascension
23h 15m 09s
True Declination
0° 00' 00"
Sunlit
Object was in daylight at TLE epoch
Visualization TLE readout
Latitude
-51.77767°
Longitude
-0.95975°
Altitude
566.145 km
Speed
7.577 km/s
Apparent Right ascension
22h 47m 36s
Apparent Declination
-81° 37' 40"
Sunlit
Object is in full shadow
Visualization observer readout
Local Sidereal Time
14:36:24
Azimuth
170.195° S
Elevation
-44.053°
Doppler factor
1
Orbital elements
Apogee altitude
548.574 km
Perigee altitude
546.368 km
Semi-major axis
6,925.608 km
Eccentricity
0.0001593
Inclination
53.0566°
RAAN
348.7883°
Arg. of periapsis
101.8017°
True anomaly
258.29722°
Mean anomaly
258.3151°
Eccentric anomaly
258.30616°
Mean motion
3.76579 °/min
BSTAR
-0.000073778
Orbital period
95.6 mins
Loading maneuver chart data...
Loading SW <> Apogee altitude chart data...

STARLINK-1413 Visibility forecast

Observer location: undefined°, undefined°

Span
Click to sort rows by Start time (UTC) header in descending order
Start Az.
Max El. time (UTC)
Max El. Az.
Max El.
End time (UTC)
End Az.
7 mins2025-05-09 16:37:34.410Z206.82° SW2025-05-09 16:40:34.410Z144.091° SSE37.297°2025-05-09 16:44:34.410Z60.041° ENE
5 mins2025-05-09 18:18:34.410Z289.998° WNW2025-05-09 18:20:34.410Z336.947° NNW25.657°2025-05-09 18:23:34.410Z30.489° NE
6 mins2025-05-09 23:19:34.410Z324.527° NNW2025-05-09 23:22:34.410Z56.102° ENE37.346°2025-05-09 23:25:34.410Z109.919° ESE
5 mins2025-05-10 00:59:34.410Z267.796° W2025-05-10 01:01:34.410Z228.736° WSW20.643°2025-05-10 01:04:34.410Z180.476° SSW
|